STARLINK-31813 (60128 NORAD) Tracking and Keplerian Element Data

This shows tracking and keplerian element data for the satellite.

Feedback or suggestion? Click here.




ElementValue
Catalog60128
NameSTARLINK-31813
Epoch Orbit1710
Epoch Day286.61743323
Epoch Year2024
RAAN252.6673
Inclination53.1592
Eccentricity0.0001201
Argument of Perigee90.985
Mean Anonmoly269.1292
Mean Motion15.39657146
Decay Rate0.00062093
L11 60128U 24118R 24286.61743323 .00062093 00000+0 15478-2 0 9990
L22 60128 53.1592 252.6673 0001201 90.9850 269.1292 15.39657146 17107



Live tracking and technical data element details for STARLINK-31813 (NORAD 60128). STARLINK-31813 can be tracked NOW for your location showing map with azimuth and elevation plus other details from your city location.







IsCatalogInMostPopularTable: catalog: 60128, numindb: 13
Update: records affected: 1



GetName: 60128 STARLINK-31813

Hit Count: updated at: Thu, 23 Jan 2025 15:02:34 GMT